Location: Street
(51.1247°N, 2.7429°W)
Time: 17:24:28
(UTC+00:00)

N. Korean satellite - Pass Details

Date: 01 November 2020
Orbit: 453 x 503 km, 97.2° (Epoch: 04 December)

Event Time Altitude Azimuth Distance (km) Brightness Sun altitude
Rises 04:45:42 0° 29° (NNE) 2,481 10.6 -22.1°
Reaches altitude 10° 04:48:27 10° 54° (NE) 1,600 10.0 -21.6°
Maximum altitude 04:50:29 15° 90° (E) 1,323 9.8 -21.3°
Drops below altitude 10° 04:52:31 10° 127° (SE) 1,593 9.9 -21.0°
Sets 04:55:15 0° 152° (SSE) 2,465 10.5 -20.6°
